[[{"header":{"parameterUnit":"m.s-1","parameterCategory":1,"la1":30.2991,"la2":30.254,"lo1":-89.0895,"lo2":-89.0444,"dy":0.0017,"dx":0.0017,"nx":28,"ny":28,"refTime":"2025-05-25T09:00:00:Z","depth":0,"parameterNumber":2,"parameterNumberName":"U-component_of_WINDS"},"data":[0,0,0,0,0,0,0,0,0,0,0,0,0,0,0,0,0,0,0,0,0,0,0,0,0,0,0,0,0,0,0,0,0,0,0,0,0,0,0,0,0,0,0,0,0,0,0,0,0,0,0,0,0,0,0,0,0,0,-0.9163,-0.9162,0,-0.9086,-0.9086,-0.9085,-0.9048,-0.9048,-0.9048,-0.9048,-0.8968,-0.8966,-0.8963,0,0,0,0,0,0,0,0,0,0,0,0,0,-0.9277,-0.9275,-0.9163,-0.9162,-0.9161,-0.9087,-0.9086,-0.9084,-0.9048,-0.9048,-0.9048,-0.9048,-0.8968,-0.8966,-0.8963,0,0,0,0,0,0,0,0,0,0,0,0,0,-0.9217,-0.9275,-0.9163,-0.9134,-0.913,-0.9087,-0.9086,-0.9084,-0.9048,-0.9048,-0.9048,-0.9048,-0.8969,-0.8966,-0.8963,-0.8942,0,0,-0.8953,-0.8952,0,0,0,0,0,0,0,0,-0.922,-0.9213,-0.9139,-0.9136,-0.9132,-0.9077,-0.9096,-0.9037,-0.9048,-0.9079,-0.9048,-0.9048,-0.9004,-0.8998,-0.8983,-0.8939,-0.8935,-0.8953,-0.8951,-0.8949,-0.8948,0,0,0,0,0,0,0,-0.9224,-0.9216,-0.9133,-0.9138,-0.9134,-0.9124,-0.9116,-0.9085,-0.9042,-0.9076,-0.9073,-0.9065,-0.9002,-0.8986,-0.8981,-0.8934,-0.8953,-0.895,-0.8948,-0.8947,-0.8869,-0.8869,0,0,0,0,0,0,-0.9234,-0.9219,-0.9135,-0.913,-0.9177,-0.9122,-0.9113,-0.9094,-0.9042,-0.9034,-0.9065,-0.9063,-0.8992,-0.8985,-0.8978,-0.8951,-0.8949,-0.8946,-0.8945,-0.8869,-0.8869,-0.8869,0,0,0,0,0,0,-0.9236,-0.9226,-0.9138,-0.9174,-0.9162,-0.912,-0.91,-0.9093,-0.9077,-0.9034,-0.9026,-0.9057,-0.8992,-0.8983,-0.8952,-0.8948,-0.8945,-0.8942,-0.887,-0.8869,-0.8869,-0.8896,0,0,0,0,0,0,-0.924,-0.9228,-0.9219,-0.9174,-0.916,-0.9113,-0.91,-0.9091,-0.9072,-0.9069,-0.9024,-0.9017,-0.8991,-0.8957,-0.8949,-0.8943,-0.8939,-0.887,-0.887,-0.8869,-0.8895,-0.8897,-0.8898,0,0,0,0,0,-0.9244,-0.9229,-0.9219,-0.9209,-0.9149,-0.9113,-0.9105,-0.9076,-0.9072,-0.9063,-0.9036,-0.9018,-0.895,-0.8954,-0.8944,-0.8938,-0.887,-0.887,-0.8869,-0.8895,-0.8897,-0.8898,0,0,0,0,0,0,-0.9274,-0.9223,-0.9211,-0.9182,-0.9152,-0.9107,-0.9095,-0.9079,-0.905,-0.9048,-0.9013,-0.9003,-0.8976,-0.8954,-0.8959,-0.8916,-0.8908,-0.8906,-0.8931,-0.8932,-0.8934,-0.8939,-0.8937,0,0,0,0,0,-0.9278,-0.9253,-0.9209,-0.9188,-0.9174,-0.9137,-0.912,-0.9101,-0.9069,-0.9056,-0.9026,-0.8995,-0.8966,-0.8948,-0.8919,-0.8893,-0.8882,-0.8883,-0.8885,-0.8886,-0.8884,-0.8869,-0.8869,-0.8868,-0.8868,-0.8868,0,0,-0.9284,-0.9253,-0.924,-0.9193,-0.9168,-0.9143,-0.9127,-0.9101,-0.9082,-0.9052,-0.9021,-0.8998,-0.8961,-0.8932,-0.8918,-0.8913,-0.8882,-0.8886,-0.8887,-0.8885,-0.8869,-0.8869,-0.8869,-0.8868,-0.8868,-0.8868,0,0,-0.9284,-0.9258,-0.9237,-0.9213,-0.9175,-0.9151,-0.9146,-0.9104,-0.9088,-0.9056,-0.9033,-0.901,-0.8962,-0.8937,-0.8918,-0.8909,-0.8892,-0.8901,-0.8908,-0.8893,-0.8893,-0.8893,-0.889,-0.8889,-0.8899,-0.89,-0.89,0,-0.9296,-0.9258,-0.9228,-0.9204,-0.9184,-0.9157,-0.9136,-0.9113,-0.9068,-0.9055,-0.9051,-0.899,-0.8963,-0.8928,-0.8927,-0.8912,-0.8905,-0.8905,-0.8896,-0.8895,-0.8894,-0.8891,-0.889,-0.8901,-0.8901,-0.8901,-0.89,0,-0.9276,-0.925,-0.9238,-0.9196,-0.9175,-0.9152,-0.9119,-0.9102,-0.9084,-0.9061,-0.903,-0.8997,-0.8961,-0.8952,-0.8934,-0.8915,-0.8913,-0.8902,-0.8894,-0.8896,-0.8892,-0.8891,-0.8903,-0.8902,-0.8902,-0.8901,0,0,-0.9291,-0.9234,-0.923,-0.9211,-0.9168,-0.9147,-0.9124,-0.909,-0.9075,-0.9046,-0.9025,-0.8985,-0.8976,-0.8954,-0.8934,-0.8921,-0.8916,-0.8912,-0.8911,-0.8914,-0.8893,-0.8901,-0.89,-0.8905,-0.8905,-0.8905,-0.8896,0,-0.9284,-0.9241,-0.9214,-0.9181,-0.9157,-0.9131,-0.9111,-0.9082,-0.906,-0.9036,-0.9012,-0.8984,-0.8974,-0.8961,-0.8947,-0.892,-0.8912,-0.892,-0.8885,-0.8884,-0.8895,-0.8897,-0.8905,-0.8898,-0.8894,-0.8894,-0.8894,0,-0.927,-0.9241,-0.9207,-0.9167,-0.9156,-0.9138,-0.9105,-0.9083,-0.905,-0.9035,-0.9012,-0.8992,-0.8966,-0.8961,-0.8924,-0.8931,-0.8915,-0.89,-0.8899,-0.8894,-0.8889,-0.8892,-0.8895,-0.8894,-0.8891,-0.8891,-0.8891,0,-0.9284,-0.9237,-0.9211,-0.9195,-0.9149,-0.9137,-0.9117,-0.9084,-0.9066,-0.9037,-0.9025,-0.8994,-0.8976,-0.8952,-0.8924,-0.8923,-0.8891,-0.8883,-0.8877,-0.8878,-0.887,-0.8871,-0.8871,-0.8861,-0.8862,-0.8862,-0.8862,0,-0.9279,-0.9258,-0.9216,-0.92,-0.9177,-0.9146,-0.9124,-0.9102,-0.9074,-0.9053,-0.9028,-0.9009,-0.8973,-0.8949,-0.8927,-0.89,-0.8893,-0.8879,-0.8874,-0.8881,-0.8883,-0.887,-0.8869,-0.8861,-0.8861,-0.8861,-0.8861,0,-0.929,-0.9261,-0.9231,-0.919,-0.9179,-0.9164,-0.9128,-0.9111,-0.9089,-0.9062,-0.9054,-0.9018,-0.8989,-0.8959,-0.8919,-0.8904,-0.8878,-0.887,-0.8889,-0.8886,-0.8881,-0.8882,-0.8872,-0.8869,-0.8863,-0.8863,-0.8863,0,-0.9288,-0.9272,-0.923,-0.9214,-0.9195,-0.917,-0.9152,-0.9122,-0.9103,-0.9066,-0.9053,-0.9023,-0.8996,-0.8951,-0.8921,-0.889,-0.8881,-0.888,-0.8876,-0.8885,-0.8881,-0.8882,-0.888,-0.8881,-0.8881,-0.8881,-0.8881,0,-0.9288,-0.9275,-0.9249,-0.9219,-0.9197,-0.9172,-0.9145,-0.9134,-0.9099,-0.9079,-0.9049,-0.9029,-0.8989,-0.8959,-0.8925,-0.8904,-0.8887,-0.8883,-0.888,-0.8887,-0.8899,-0.8892,-0.8892,-0.8883,-0.8883,-0.8883,-0.8883,-0.8883,-0.9293,-0.9278,-0.9246,-0.9218,-0.9195,-0.9171,-0.9153,-0.9129,-0.9104,-0.9069,-0.9053,-0.9023,-0.8992,-0.8945,-0.8925,-0.8901,-0.8896,-0.8891,-0.889,-0.8889,-0.8891,-0.8903,-0.8894,-0.8894,-0.8894,-0.8894,-0.8894,0,-0.9291,-0.927,-0.9245,-0.9209,-0.9187,-0.9174,-0.9144,-0.9127,-0.9101,-0.9073,-0.9048,-0.9014,-0.8985,-0.8954,-0.8922,-0.8909,-0.8901,-0.8902,-0.8902,-0.8898,-0.8897,-0.8903,-0.891,-0.891,-0.891,-0.891,-0.891,-0.891,-0.9288,-0.9261,-0.9245,-0.9207,-0.9185,-0.9156,-0.914,-0.9118,-0.9096,-0.906,-0.9036,-0.9015,-0.8986,-0.8953,-0.8926,-0.8917,-0.8906,-0.891,-0.8899,-0.8899,-0.8898,-0.8897,-0.8902,-0.8908,-0.8908,-0.8901,-0.8901,-0.8901]},{"header":{"parameterUnit":"m.s-1","parameterCategory":1,"la1":30.2991,"la2":30.254,"lo1":-89.0895,"lo2":-89.0444,"dy":0.0017,"dx":0.0017,"nx":28,"ny":28,"refTime":"2025-05-25T09:00:00:Z","depth":0,"parameterNumber":3,"parameterNumberName":"V-component_of_WINDS"},"data":[0,0,0,0,0,0,0,0,0,0,0,0,0,0,0,0,0,0,0,0,0,0,0,0,0,0,0,0,0,0,0,0,0,0,0,0,0,0,0,0,0,0,0,0,0,0,0,0,0,0,0,0,0,0,0,0,0,0,5.0601,5.0601,0,5.0584,5.0584,5.0584,5.0524,5.0523,5.0521,5.052,5.0504,5.0505,5.0506,0,0,0,0,0,0,0,0,0,0,0,0,0,5.0582,5.0583,5.0601,5.0601,5.06,5.0584,5.0584,5.0584,5.0524,5.0523,5.0521,5.0519,5.0504,5.0505,5.0506,0,0,0,0,0,0,0,0,0,0,0,0,0,5.0581,5.0583,5.0601,5.0569,5.0566,5.0584,5.0584,5.0584,5.0525,5.0522,5.052,5.0519,5.0503,5.0505,5.0506,5.0555,0,0,5.051,5.051,0,0,0,0,0,0,0,0,5.0581,5.0581,5.0574,5.0571,5.0568,5.0554,5.0572,5.0574,5.0525,5.054,5.052,5.0518,5.0522,5.0522,5.0523,5.0554,5.0553,5.051,5.0511,5.0511,5.0512,0,0,0,0,0,0,0,5.0581,5.0582,5.0594,5.0574,5.057,5.0556,5.0553,5.0572,5.0543,5.0539,5.0534,5.0533,5.052,5.0522,5.0523,5.0553,5.051,5.0511,5.0512,5.0512,5.0624,5.0626,0,0,0,0,0,0,5.0586,5.0582,5.0595,5.0594,5.0569,5.0558,5.0555,5.056,5.0543,5.0538,5.0535,5.053,5.0521,5.0521,5.0522,5.0578,5.0511,5.0512,5.0513,5.0622,5.0624,5.0627,0,0,0,0,0,0,5.0585,5.0587,5.0595,5.0587,5.0587,5.056,5.0567,5.0561,5.0563,5.054,5.0534,5.0542,5.052,5.052,5.0547,5.0577,5.0513,5.0514,5.0619,5.0622,5.0625,5.0692,0,0,0,0,0,0,5.0585,5.0587,5.0605,5.0588,5.0587,5.0621,5.0569,5.0562,5.0565,5.0559,5.0545,5.0541,5.0518,5.0546,5.0548,5.0578,5.0515,5.0616,5.062,5.0624,5.0687,5.0697,5.0705,0,0,0,0,0,5.0585,5.0625,5.0607,5.0608,5.0609,5.0623,5.0622,5.0595,5.0568,5.0586,5.0571,5.0541,5.0573,5.0549,5.0551,5.0582,5.0614,5.0619,5.0624,5.0683,5.0695,5.0705,0,0,0,0,0,0,5.0647,5.0622,5.0601,5.0637,5.0632,5.0612,5.0634,5.0609,5.0612,5.0607,5.0573,5.057,5.0602,5.0594,5.0568,5.0628,5.0589,5.0595,5.0632,5.0644,5.0653,5.0655,5.0516,0,0,0,0,0,5.0664,5.0677,5.0655,5.0688,5.0687,5.0661,5.0666,5.0645,5.0639,5.0637,5.0624,5.062,5.0629,5.0636,5.0643,5.0685,5.0682,5.0707,5.0717,5.0724,5.073,5.0753,5.0764,5.0643,5.0643,5.0643,0,0,5.0701,5.0689,5.0699,5.07,5.0694,5.0709,5.066,5.0677,5.0688,5.064,5.0665,5.0655,5.0648,5.0684,5.0698,5.0678,5.0763,5.0731,5.0737,5.0738,5.0759,5.0771,5.0781,5.0646,5.0646,5.0645,0,0,5.0776,5.0768,5.0795,5.0791,5.0782,5.0765,5.0772,5.0756,5.0748,5.0772,5.0737,5.0749,5.0765,5.0762,5.0763,5.0837,5.081,5.0841,5.089,5.0912,5.0922,5.093,5.0958,5.0968,5.0846,5.0846,5.0846,0,5.0823,5.0843,5.0813,5.0832,5.0834,5.0792,5.082,5.0816,5.0811,5.0814,5.0791,5.0811,5.0803,5.0837,5.0856,5.0857,5.0865,5.0842,5.0923,5.0931,5.0938,5.0964,5.0975,5.085,5.085,5.0849,5.0849,0,5.0902,5.0916,5.094,5.0935,5.094,5.0964,5.0937,5.0946,5.0925,5.091,5.0936,5.0926,5.093,5.0937,5.0917,5.0969,5.0956,5.0929,5.0889,5.0954,5.0978,5.0988,5.0855,5.0854,5.0853,5.0852,0,0,5.1015,5.0994,5.1003,5.1002,5.099,5.1,5.1023,5.1027,5.1035,5.1033,5.1051,5.1066,5.1041,5.1042,5.1021,5.1041,5.1102,5.101,5.101,5.1029,5.1159,5.1181,5.1193,5.1083,5.1085,5.1087,5.116,0,5.1087,5.1123,5.1097,5.1138,5.1152,5.1112,5.1131,5.1127,5.1114,5.1124,5.111,5.1121,5.1086,5.1087,5.1104,5.109,5.1128,5.1085,5.1101,5.1102,5.1105,5.1205,5.1227,5.1297,5.1169,5.1171,5.1172,0,5.1176,5.1178,5.122,5.1206,5.1211,5.1229,5.1231,5.1241,5.1235,5.1224,5.1226,5.12,5.1221,5.1182,5.1211,5.1183,5.1188,5.1182,5.1184,5.1185,5.1141,5.121,5.1319,5.133,5.1186,5.1185,5.1184,0,5.1255,5.1268,5.1296,5.1295,5.1279,5.1293,5.1287,5.1279,5.1284,5.1286,5.1289,5.1293,5.1296,5.1301,5.1277,5.125,5.1311,5.1269,5.1303,5.1304,5.1318,5.1318,5.1431,5.132,5.132,5.132,5.132,0,5.1339,5.1367,5.1332,5.1349,5.1379,5.1349,5.138,5.137,5.1363,5.1378,5.1344,5.1358,5.1326,5.1338,5.132,5.1348,5.1349,5.1341,5.1336,5.1345,5.1346,5.1348,5.1343,5.1323,5.1322,5.1322,5.1321,0,5.1433,5.141,5.1438,5.1421,5.1417,5.1441,5.1426,5.1441,5.1426,5.1446,5.1448,5.1425,5.1437,5.1414,5.1423,5.1411,5.1451,5.1437,5.1453,5.1449,5.1485,5.1483,5.1605,5.162,5.1499,5.15,5.1501,0,5.1488,5.1509,5.1494,5.1501,5.1497,5.151,5.1514,5.1485,5.1492,5.1487,5.1503,5.1512,5.1518,5.1539,5.1523,5.153,5.1518,5.156,5.1519,5.1527,5.152,5.1519,5.1521,5.1569,5.157,5.1572,5.1572,0,5.1589,5.1577,5.1584,5.1589,5.1595,5.1597,5.1597,5.1605,5.1574,5.1583,5.1595,5.16,5.1609,5.1619,5.1622,5.1616,5.159,5.1586,5.1594,5.1604,5.1612,5.1609,5.1477,5.1583,5.1582,5.1581,5.1581,5.158,5.1666,5.1682,5.1675,5.1685,5.1682,5.1682,5.1696,5.1683,5.1692,5.1697,5.168,5.1696,5.169,5.1692,5.1689,5.1702,5.1683,5.1695,5.1698,5.1702,5.1708,5.1609,5.1702,5.1702,5.1701,5.1701,5.1701,0,5.1765,5.1758,5.1768,5.1769,5.1777,5.1751,5.1749,5.1758,5.1772,5.1769,5.1775,5.179,5.1799,5.1784,5.1791,5.1805,5.1793,5.1808,5.1807,5.1806,5.1724,5.1716,5.1817,5.1817,5.1817,5.1817,5.1817,5.1817,5.1818,5.1846,5.1833,5.1859,5.1852,5.1867,5.1869,5.1869,5.1866,5.1884,5.1892,5.1881,5.1874,5.188,5.1888,5.1884,5.1888,5.1908,5.1899,5.1823,5.1812,5.1801,5.1794,5.1909,5.1909,5.198,5.1981,5.1981]}]]